{"data":{"norad_id":59007,"epoch":"2026-05-25T02:15:00.578880Z","epoch_age_seconds":62849,"freshness":"FRESH","line1":"1 59007U 24036K   26145.09375670  .00000548  00000+0  30637-4 0  9990","line2":"2 59007  53.1611  83.0544 0001376  98.2065 261.9092 15.30196378127025","mean_motion":15.30196378,"eccentricity":0.0001376,"inclination_deg":53.1611,"raan_deg":83.0544,"arg_perigee_deg":98.2065,"mean_anomaly_deg":261.9092,"bstar":3.0637e-5,"rev_number":12702,"period_min":94.105568455345,"perigee_km":474.28286134694,"apogee_km":476.16890681264,"semimajor_km":6853.3628840798,"source":"CELESTRAK","updated_at":"2026-05-25T13:38:18.799178Z"}}